March AFB, CA

5:22 PM PST on February 27, 2017 (GMT -0800)
March Air Reserve Base

Weather History for KRIV - July, 2013

Change the Weather History Date:

Monday, July 15, 2013

  Actual Average Record
Temperature  
Mean Temperature 79 °F -  
Max Temperature 95 °F 90 °F 105 °F (2010)
Min Temperature 64 °F 60 °F 55 °F (2015)
Cooling Degree Days 14    
Growing Degree Days 29 (Base 50)    
Moisture  
Dew Point 53 °F    
Average Humidity 45    
Maximum Humidity 77    
Minimum Humidity 21    
Precipitation  
Precipitation 0.00 in - - ()
Sea Level Pressure  
Sea Level Pressure 29.84 in    
Wind  
Wind Speed 5 mph (WNW)    
Max Wind Speed 20 mph    
Max Gust Speed 23 mph    
Visibility 10 miles    
Events      
Averages and records for this station are not official NWS values.
T = Trace of Precipitation, MM = Missing Value Source: NWS Daily Summary

Daily Weather History Graph

Daily Weather History Graph

Search for Another Location

Airport or City:

Trip Planner

Search our weather history database for the weather conditions in past years. The results will help you decide how hot, cold, wet, or windy it might be!

Date:

Astronomy

Jul. 15, 2013 Rise Set
Actual Time 5:49 AM PDT 8:00 PM PDT
Civil Twilight 5:20 AM PDT 8:28 PM PDT
Nautical Twilight 4:46 AM PDT 9:03 PM PDT
Astronomical Twilight 4:08 AM PDT 9:40 PM PDT
Moon 12:50 PM PDT (7/15) No Moon Set
Length of Visible Light 15h 07m
Length of Day
14h 11m
Waxing Crescent, 46% of the Moon is Illuminated
Jul 15
Waxing Crescent
Jul 15
First Quarter
Jul 22
Full
Jul 29
Last Quarter
Aug 6
New

Hourly Weather History & Observations

Time (PDT) Temp. Heat Index Dew Point Humidity Pressure Visibility Wind Dir Wind Speed Gust Speed Precip Events Conditions
12:58 AM 70.3 °F - 55.6 °F 59% 29.86 in 10.0 mi Calm Calm - N/A   Clear
1:58 AM 68.4 °F - 56.5 °F 66% 29.84 in 10.0 mi WNW 3.5 mph - N/A   Clear
2:58 AM 67.8 °F - 57.9 °F 71% 29.83 in 10.0 mi WNW 4.6 mph - N/A   Clear
3:58 AM 66.2 °F - 58.6 °F 77% 29.84 in 10.0 mi WNW 3.5 mph - N/A   Clear
4:58 AM 66.9 °F - 58.6 °F 75% 29.84 in 10.0 mi NNW 1.2 mph - N/A   Clear
5:58 AM 64.6 °F - 57.0 °F 76% 29.84 in 10.0 mi Calm Calm - N/A   Clear
6:58 AM 69.4 °F - 59.5 °F 71% 29.85 in 10.0 mi Calm Calm - N/A   Clear
7:58 AM 74.1 °F - 57.7 °F 56% 29.85 in 10.0 mi ESE 2.3 mph - N/A   Clear
8:58 AM 79.0 °F - 53.1 °F 40% 29.86 in 10.0 mi Calm Calm - N/A   Clear
9:58 AM 83.3 °F 82.1 °F 53.4 °F 36% 29.85 in 10.0 mi Calm Calm - N/A   Clear
10:58 AM 86.0 °F 85.7 °F 59.9 °F 41% 29.85 in 10.0 mi NW 10.4 mph - N/A   Clear
11:58 AM 90.0 °F 88.1 °F 55.4 °F 31% 29.85 in 10.0 mi WNW 8.1 mph - N/A   Clear
12:58 PM 91.9 °F 89.5 °F 53.4 °F 27% 29.84 in 10.0 mi West 10.4 mph - N/A   Clear
1:58 PM 94.3 °F - 49.1 °F 21% 29.83 in 10.0 mi WNW 16.1 mph 23.0 mph N/A   Clear
2:55 PM 94.8 °F - 49.3 °F 21% 29.83 in 10.0 mi WNW 17.3 mph - N/A   Clear
3:55 PM 93.6 °F - 51.6 °F 24% 29.82 in 10.0 mi WNW 19.6 mph 23.0 mph N/A   Clear
4:55 PM 92.1 °F - 52.5 °F 26% 29.81 in 10.0 mi West 17.3 mph - N/A   Clear
5:58 PM 90.1 °F - 50.0 °F 25% 29.79 in 10.0 mi WNW 18.4 mph - N/A   Clear
6:58 PM 87.1 °F - 50.7 °F 29% 29.80 in 10.0 mi NW 9.2 mph - N/A   Clear
7:58 PM 81.1 °F - 48.6 °F 32% 29.82 in 10.0 mi NW 8.1 mph - N/A   Clear
8:58 PM 76.3 °F - 45.3 °F 33% 29.83 in 10.0 mi WNW 6.9 mph - N/A   Clear
9:58 PM 72.1 °F - 50.4 °F 46% 29.85 in 10.0 mi WNW 6.9 mph - N/A   Clear
10:58 PM 70.2 °F - 47.5 °F 44% 29.86 in 10.0 mi WNW 3.5 mph - N/A   Clear
11:58 PM 64.9 °F - 43.9 °F 46% 29.87 in 9.0 mi WNW 5.8 mph - N/A   Clear